02:31
Airports
History
Links
Donate
Help keep this website running!
PayPal
Bitcoin
This page is community maintained. The information is intended for PC simulator navigation or reference.
Always use approved charts for navigation.
LPAV
AVEIRO
AVEIRO (LPAV)
Aveiro, Aveiro, Portugal (3800)
(U)
Lat/Lng:40° 39' 15.02" N / 8° 44' 36.79" W
40.654173 / -8.743552
Elevation:26'ft / 8mMSL
ID / ICAO:LPAV
Runways:1
Longest:17-35
Asphalt 1,400m / 4,594ft
Nearby Weather02:00 GMT 2018-02-23
Nearby weather at LPPR, Porto located 41.2 nautical miles from LPAV
Altimeter: 29.74
Visibility: 5.6 statute miles
Wind: 6 knots (from 100°)
Temp: 4°c / 39°f
Humidity: 93.2%

METAR: LPPR 230200Z 10006KT 9000 NSC 04/03 Q1007

(Powered by phpweather)
Nearby VORs <50NM
Nearby NDBs
Runway 17 / 35
Dimensions:1400.1 x 50m 4594' x 164'ft
Surface:Asphalt
Runway 17 [A]Runway 35 [B]
Heading:165°TH 345°TH
Lat:
Lng:
40° 39' 36.95"N
8° 44' 44.3"W
40° 38' 53.09"N
8° 44' 29.27"W
User Notes and Comments
40° 39' 15.02" N / 8° 44' 36.79" W
Distance To
Airport ID:
Nearby Airports
(C) OVAR 18.8 NM
LPOV NNE 15°
(U) Paramos Airfield 22.1 NM
LPIN NNE 12°
(U) COIMBRA 37.2 NM
LPCO SSE 157°
(C) Porto 41.2 NM
LPPR ( WX ) N
(U) Maia Airfield 44.2 NM
LPVL NNE 16°
(U) VISEU 45.0 NM
LPVZ E 83°
(C) MONTE REAL 57.4 NM
LPMR S 187°
VFR Chart
Flight Planning at SkyVector.com